• In Netherlands
  • List of Countries
  • For 7 days
  • Water Temperature
  • Satellite Maps
  • Weather Map
  • Weather Widgets
  • user-avatar
    Login

    Hourly Weather Kapan

    Today, 21 January, Saturday

    Time Temperature Precipitation Wind Pressure Humidity
    00:00 -3°C° 0 mm 0 mps 686 mmHg 89%
    01:00 -3°C° 0 mm 0 mps 686 mmHg 89%
    02:00 -3°C° 0 mm 0 mps 686 mmHg 89%
    03:00 -4°C° 0 mm 0 mps 685 mmHg 88%
    04:00 -4°C° 0 mm 0 mps 685 mmHg 89%
    05:00 -4°C° 0 mm 0 mps 685 mmHg 90%
    06:00 -5°C° 0 mm 0 mps 685 mmHg 90%
    07:00 -3°C° 0 mm 0 mps 686 mmHg 84%
    08:00 -2°C° 0 mm 0 mps 686 mmHg 79%
    09:00 +1°C° 0 mm 1 mps 687 mmHg 71%
    10:00 +2°C° 0 mm 1 mps 687 mmHg 67%
    11:00 +3°C° 0 mm 1 mps 687 mmHg 64%
    12:00 +4°C° 0 mm 1 mps 687 mmHg 60%
    13:00 +4°C° 0 mm 1 mps 686 mmHg 61%
    14:00 +4°C° 0 mm 1 mps 686 mmHg 62%
    15:00 +4°C° 0 mm 1 mps 686 mmHg 63%
    16:00 +2°C° 0 mm 1 mps 686 mmHg 70%
    17:00 0°C° 0 mm 1 mps 685 mmHg 77%
    18:00 -2°C° 0 mm 1 mps 685 mmHg 84%
    19:00 -2°C° 0 mm 1 mps 685 mmHg 84%
    20:00 -3°C° 0 mm 1 mps 685 mmHg 84%
    21:00 -3°C° 0 mm 1 mps 685 mmHg 83%
    22:00 -3°C° 0 mm 1 mps 685 mmHg 82%
    23:00 -3°C° 0 mm 1 mps 685 mmHg 81%

    Tomorrow, 22 January, Sunday

    Time Temperature Precipitation Wind Pressure Humidity
    00:00 -3°C° 0 mm 1 mps 685 mmHg 79%
    01:00 -3°C° 0 mm 1 mps 685 mmHg 78%
    02:00 -3°C° 0 mm 1 mps 685 mmHg 77%
    03:00 -4°C° 0 mm 1 mps 685 mmHg 77%
    04:00 -4°C° 0 mm 1 mps 685 mmHg 76%
    05:00 -4°C° 0 mm 1 mps 685 mmHg 76%
    06:00 -6°C° 0 mm 2 mps 685 mmHg 75%
    07:00 -3°C° 0 mm 1 mps 686 mmHg 72%
    08:00 -1°C° 0 mm 1 mps 686 mmHg 68%
    09:00 0°C° 0 mm 1 mps 687 mmHg 65%
    10:00 +1°C° 0 mm 1 mps 686 mmHg 61%
    11:00 +2°C° 0 mm 2 mps 686 mmHg 58%
    12:00 +3°C° 0 mm 2 mps 686 mmHg 55%
    13:00 +3°C° 0 mm 2 mps 686 mmHg 56%
    14:00 +3°C° 0 mm 2 mps 686 mmHg 57%
    15:00 +3°C° 0 mm 2 mps 686 mmHg 58%
    16:00 +2°C° 0 mm 1 mps 686 mmHg 66%
    17:00 0°C° 0 mm 1 mps 687 mmHg 73%
    18:00 -2°C° 0 mm 1 mps 687 mmHg 81%
    19:00 -3°C° 0 mm 1 mps 688 mmHg 80%
    20:00 -3°C° 0 mm 1 mps 688 mmHg 80%
    21:00 -3°C° 0 mm 1 mps 688 mmHg 80%
    22:00 -4°C° 0 mm 1 mps 689 mmHg 80%
    23:00 -5°C° 0 mm 0 mps 689 mmHg 80%

    Day after tomorrow, 23 January, Monday

    Time Temperature Precipitation Wind Pressure Humidity
    00:00 -5°C° 0 mm 0 mps 689 mmHg 79%
    01:00 -6°C° 0 mm 1 mps 690 mmHg 78%
    02:00 -6°C° 0 mm 1 mps 690 mmHg 78%
    03:00 -6°C° 0 mm 1 mps 690 mmHg 77%
    04:00 -6°C° 0 mm 1 mps 690 mmHg 75%
    05:00 -6°C° 0 mm 1 mps 690 mmHg 73%
    06:00 -6°C° 0 mm 1 mps 690 mmHg 72%
    07:00 -3°C° 0 mm 1 mps 691 mmHg 68%
    08:00 -1°C° 0 mm 1 mps 692 mmHg 63%
    09:00 0°C° 0 mm 1 mps 693 mmHg 59%
    10:00 +2°C° 0 mm 1 mps 693 mmHg 56%
    11:00 +3°C° 0 mm 1 mps 693 mmHg 53%
    12:00 +4°C° 0 mm 1 mps 692 mmHg 49%
    13:00 +4°C° 0 mm 1 mps 692 mmHg 51%
    14:00 +4°C° 0 mm 1 mps 692 mmHg 52%
    15:00 +4°C° 0 mm 1 mps 691 mmHg 54%
    16:00 +2°C° 0 mm 1 mps 691 mmHg 61%
    17:00 0°C° 0 mm 1 mps 691 mmHg 69%
    18:00 -4°C° 0 mm 0 mps 691 mmHg 76%
    19:00 -4°C° 0 mm 0 mps 691 mmHg 76%
    20:00 -4°C° 0 mm 0 mps 691 mmHg 75%
    21:00 -4°C° 0 mm 0 mps 691 mmHg 75%
    22:00 -5°C° 0 mm 0 mps 691 mmHg 75%
    23:00 -5°C° 0 mm 0 mps 691 mmHg 75%

    24 January, Tuesday

    Time Temperature Precipitation Wind Pressure Humidity
    00:00 -5°C° 0 mm 0 mps 691 mmHg 75%
    01:00 -5°C° 0 mm 0 mps 691 mmHg 75%
    02:00 -6°C° 0 mm 0 mps 691 mmHg 75%
    03:00 -6°C° 0 mm 0 mps 691 mmHg 76%
    04:00 -6°C° 0 mm 0 mps 691 mmHg 75%
    05:00 -6°C° 0 mm 0 mps 691 mmHg 75%
    06:00 -6°C° 0 mm 0 mps 691 mmHg 75%
    07:00 -4°C° 0 mm 0 mps 691 mmHg 68%
    08:00 -1°C° 0 mm 1 mps 692 mmHg 62%
    09:00 +2°C° 0 mm 1 mps 693 mmHg 56%
    10:00 +3°C° 0 mm 1 mps 693 mmHg 52%
    11:00 +5°C° 0 mm 1 mps 693 mmHg 49%
    12:00 +6°C° 0 mm 1 mps 693 mmHg 45%
    13:00 +6°C° 0 mm 1 mps 692 mmHg 47%
    14:00 +6°C° 0 mm 1 mps 691 mmHg 49%
    15:00 +6°C° 0 mm 1 mps 691 mmHg 51%
    16:00 +4°C° 0 mm 1 mps 690 mmHg 59%
    17:00 +2°C° 0 mm 1 mps 690 mmHg 66%
    18:00 -1°C° 0 mm 1 mps 689 mmHg 73%
    19:00 -3°C° 0 mm 2 mps 689 mmHg 69%
    20:00 -3°C° 0 mm 2 mps 689 mmHg 65%
    21:00 -3°C° 0 mm 2 mps 689 mmHg 61%
    22:00 -3°C° 0 mm 2 mps 689 mmHg 59%
    23:00 -3°C° 0 mm 2 mps 688 mmHg 57%

    25 January, Wednesday

    Time Temperature Precipitation Wind Pressure Humidity
    00:00 -4°C° 0 mm 3 mps 688 mmHg 55%
    01:00 -4°C° 0 mm 3 mps 688 mmHg 54%
    02:00 -4°C° 0 mm 3 mps 687 mmHg 53%
    03:00 -4°C° 0 mm 3 mps 687 mmHg 52%
    04:00 -4°C° 0 mm 3 mps 686 mmHg 52%
    05:00 -4°C° 0 mm 3 mps 686 mmHg 51%
    06:00 -4°C° 0 mm 3 mps 686 mmHg 51%
    07:00 -1°C° 0 mm 3 mps 686 mmHg 49%
    08:00 0°C° 0 mm 3 mps 686 mmHg 47%
    09:00 +2°C° 0 mm 3 mps 686 mmHg 45%
    10:00 +4°C° 0 mm 3 mps 685 mmHg 44%
    11:00 +5°C° 0 mm 3 mps 685 mmHg 42%
    12:00 +8°C° 0 mm 3 mps 684 mmHg 41%
    13:00 +8°C° 0 mm 3 mps 684 mmHg 43%
    14:00 +8°C° 0 mm 2 mps 683 mmHg 44%
    15:00 +8°C° 0 mm 2 mps 683 mmHg 46%
    16:00 +6°C° 0 mm 2 mps 683 mmHg 50%
    17:00 +4°C° 0 mm 3 mps 682 mmHg 54%
    18:00 +2°C° 0 mm 3 mps 682 mmHg 57%
    19:00 +2°C° 0 mm 3 mps 682 mmHg 58%
    20:00 +2°C° 0 mm 3 mps 682 mmHg 59%
    21:00 +2°C° 0 mm 3 mps 681 mmHg 60%
    22:00 +2°C° 0 mm 3 mps 681 mmHg 62%
    23:00 +1°C° 0 mm 3 mps 681 mmHg 64%

    26 January, Thursday

    Time Temperature Precipitation Wind Pressure Humidity
    00:00 +1°C° 0 mm 3 mps 681 mmHg 66%
    01:00 +1°C° 0 mm 3 mps 681 mmHg 67%
    02:00 +1°C° 0 mm 3 mps 681 mmHg 67%
    03:00 +1°C° 0 mm 3 mps 680 mmHg 68%
    04:00 +1°C° 0.1 mm 3 mps 680 mmHg 69%
    05:00 +1°C° 0.1 mm 3 mps 680 mmHg 71%
    06:00 +2°C° 0.1 mm 2 mps 680 mmHg 72%
    07:00 +3°C° 0.1 mm 2 mps 680 mmHg 70%
    08:00 +4°C° 0.1 mm 2 mps 680 mmHg 67%
    09:00 +5°C° 0.1 mm 2 mps 681 mmHg 64%
    10:00 +6°C° 0.1 mm 2 mps 680 mmHg 61%
    11:00 +7°C° 0.1 mm 3 mps 680 mmHg 57%
    12:00 +8°C° 0.1 mm 3 mps 680 mmHg 53%
    13:00 +8°C° 0 mm 3 mps 680 mmHg 53%
    14:00 +8°C° 0 mm 2 mps 679 mmHg 53%
    15:00 +7°C° 0 mm 2 mps 679 mmHg 52%
    16:00 +6°C° 0 mm 2 mps 679 mmHg 58%
    17:00 +5°C° 0 mm 1 mps 680 mmHg 64%
    18:00 +4°C° 0 mm 1 mps 680 mmHg 70%
    19:00 +4°C° 0.1 mm 1 mps 680 mmHg 72%
    20:00 +3°C° 0.1 mm 1 mps 680 mmHg 73%
    21:00 +3°C° 0.1 mm 1 mps 681 mmHg 75%
    22:00 +3°C° 0.3 mm 1 mps 681 mmHg 78%
    23:00 +3°C° 0.3 mm 1 mps 681 mmHg 80%
    Show more